#timestamp,LO_Frequency,Hit,StdDev 
1503082815.8,286047002.7,N,1.2
1503082835.7,286046999.7,N,1.2
1503082855.5,286047000.9,N,1.2
1503082875.4,286047000.4,N,1.2
1503082895.2,286047000.2,N,1.1
1503082915.0,286047002.1,N,1.1
1503082915.9,286047002.1,N,1.1
1503082935.8,286047002.5,N,1.2
1503082955.6,286047002.1,N,1.2
1503082975.4,286047001.9,N,1.1
1503082995.3,286047002.4,N,1.1
1503083015.1,286046999.8,N,1.1
1503083016.0,286046999.8,N,1.1
1503083035.8,286047000.1,N,1.0
1503083055.7,286047002.6,N,1.1
1503083075.5,286047000.1,N,1.1
1503083095.3,286047002.5,N,1.1
1503083115.2,286047000.4,N,1.1
1503083135.9,286047001.6,N,1.1
1503083155.7,286047001.7,N,1.1
1503083175.6,286047002.0,N,1.1
1503083195.4,286047001.9,N,1.1
1503083215.2,286047001.9,N,1.1
1503083235.1,286047002.7,N,1.1
1503083236.0,286047002.7,N,1.1
1503083255.8,286047001.9,N,1.1
1503083275.6,286047001.6,N,1.1
1503083295.5,286047002.2,N,1.0
1503083315.3,286047003.7,Y,0.0
1503083335.2,286047001.3,P,0.1
1503083355.9,286047002.2,P,0.4
1503083375.7,286046999.8,N,0.9
1503083395.6,286047002.4,N,0.9
1503083415.4,286047002.8,Y,0.0
1503083435.2,286047001.0,P,0.2
1503083455.1,286047001.2,P,0.2
1503083456.0,286047001.2,P,0.2
1503083475.8,286046998.2,Y,0.0
1503083495.6,286046998.3,P,1.5
1503083515.5,286046998.9,N,1.3
1503083535.3,286046998.4,N,1.2
1503083555.1,286046998.4,N,1.1
1503083575.9,286046999.0,N,1.0
1503083595.7,286046999.5,N,0.9
1503083615.5,286046999.4,N,0.9
1503083635.4,286047000.8,N,1.0
1503083655.2,286046998.1,N,1.0
1503083675.0,286046998.2,N,1.0
1503083675.9,286046998.2,N,1.0
1503083695.8,286047000.5,N,1.0
1503083715.6,286046998.1,N,1.0
1503083735.4,286046998.6,N,1.0
1503083755.3,286046999.0,N,1.0
1503083775.1,286046998.8,N,0.9
1503083776.0,286046998.8,N,0.9
1503083795.8,286046998.2,N,0.9
1503083815.7,286047001.0,N,1.0
1503083835.5,286047001.2,N,1.1
1503083855.3,286047001.2,N,1.1
1503083875.2,286046998.2,N,1.1
1503083895.9,286047000.5,N,1.1
1503083915.7,286047001.2,N,1.2
1503083935.6,286047001.1,N,1.2
1503083955.4,286047000.0,N,1.2
1503083975.2,286047011.9,Y,0.0
1503083995.1,286047000.0,P,0.3
1503083996.0,286047000.0,N,0.3
1503084015.8,286046998.2,P,0.7
1503084035.6,286047000.5,N,0.8
1503084055.5,286047000.8,N,0.8
1503084075.3,286047000.8,N,0.9
1503084095.1,286047000.3,N,0.8
1503084115.9,286047000.6,N,0.8
1503084135.7,286046999.9,N,0.7
1503084155.5,286047000.6,N,0.7
1503084175.4,286046998.2,N,0.9
1503084195.2,286047001.1,N,0.9
1503084215.0,286047000.7,N,0.9
1503084215.9,286047000.7,N,0.9
1503084235.8,286047001.2,N,0.9
1503084255.6,286047000.8,N,0.9
1503084275.4,286047001.0,N,0.9
1503084295.3,286047000.9,N,0.8
1503084315.1,286047000.5,N,0.8
1503084335.8,286047000.6,N,0.8
1503084355.7,286047000.3,N,0.8
1503084375.5,286046998.1,N,0.9
1503084395.3,286047000.8,N,0.9
1503084415.2,286047001.0,N,0.9
1503084435.0,286047000.3,N,0.9
1503084435.9,286047000.3,N,0.8
1503084455.8,286047000.3,N,0.8
1503084475.6,286047000.2,N,0.8
1503084495.4,286047000.0,N,0.8
1503084515.3,286046999.8,N,0.8
1503084535.1,286046999.8,N,0.8
1503084536.0,286046999.8,N,0.8
1503084555.8,286047000.6,N,0.7
1503084575.7,286047000.7,N,0.7
1503084595.5,286047000.9,N,0.7
1503084615.3,286047000.7,N,0.7
1503084635.2,286047000.3,N,0.7
1503084655.0,286047000.2,N,0.7
1503084655.9,286047000.2,N,0.7
1503084675.7,286046999.7,N,0.7
1503084695.6,286047000.2,N,0.6
1503084715.4,286046999.7,N,0.6
1503084735.2,286047000.1,N,0.6
1503084755.1,286047000.3,N,0.6
1503084756.0,286047000.3,N,0.6
1503084775.8,286046998.1,Y,0.0
1503084795.6,286047000.5,P,0.1
1503084815.5,286047000.0,N,0.2
1503084835.3,286047000.8,P,0.3
1503084855.1,286047000.5,N,0.3
1503084875.9,286047000.8,N,0.3
1503084895.7,286047000.8,N,0.3
1503084915.5,286047000.8,N,0.3
1503084935.4,286046998.8,Y,0.0
1503084955.2,286047001.2,P,0.3
1503084975.0,286047001.2,P,0.3
1503084976.0,286047001.2,P,0.3
1503084995.8,286047001.0,Y,0.0
1503085015.6,286046998.7,P,1.2
1503085035.5,286046998.1,N,1.3
1503085055.3,286047000.8,N,1.3
1503085075.1,286046998.5,N,1.2
1503085095.9,286046999.2,N,1.1
1503085115.7,286046999.5,N,1.0
1503085135.5,286046999.3,N,1.0
1503085155.4,286046996.6,Y,0.0
1503085175.2,286046998.8,P,0.3
1503085195.0,286046996.9,P,1.1
1503085195.9,286046996.9,N,1.1
1503085215.8,286046997.6,N,1.0
1503085235.6,286046997.5,N,0.9
1503085255.4,286046997.8,N,0.9
1503085275.3,286046997.4,Y,0.0
1503085295.1,286046999.4,P,0.8
1503085296.0,286046999.4,N,0.7
1503085315.8,286046999.1,N,0.6
1503085335.7,286046996.5,Y,0.0
1503085355.5,286046999.3,P,0.2
1503085375.3,286046998.9,P,0.2
1503085395.2,286046999.1,P,0.2
1503085415.0,286046999.1,Y,0.0
1503085415.9,286046999.1,P,0.0
1503085435.7,286046999.4,P,0.2
1503085455.6,286046998.3,P,0.4
1503085475.4,286046999.0,N,0.4
1503085495.2,286046999.3,N,0.4
1503085515.1,286046999.2,N,0.3
1503085516.0,286046999.2,N,0.3
1503085535.8,286046996.8,Y,0.0
1503085555.6,286046999.0,P,0.0
1503085575.5,286046999.4,P,0.2
1503085595.3,286046999.1,P,0.2
1503085615.1,286046999.3,Y,0.0
1503085635.9,286047000.9,P,0.9
1503085655.7,286047000.8,N,0.8
1503085675.5,286046998.7,N,1.0
1503085695.4,286046998.9,N,1.0
1503085715.2,286046999.0,N,0.9
1503085735.0,286046999.1,N,0.9
1503085735.9,286046999.1,N,0.8
1503085755.8,286046999.1,N,0.8
1503085775.6,286046996.5,Y,0.0
1503085795.5,286046999.1,P,0.2
1503085815.3,286046996.6,P,1.3
1503085835.1,286046996.6,N,1.3
1503085855.9,286046999.4,N,1.3
1503085875.7,286046997.1,N,1.3
1503085895.5,286046996.9,N,1.3
1503085915.3,286046997.8,N,1.2
1503085935.2,286046997.2,N,1.1
1503085955.0,286046999.1,N,1.1
1503085955.9,286046999.1,N,1.1
1503085975.8,286046996.9,N,1.1
1503085995.6,286046997.2,N,1.1
1503086015.4,286046994.9,Y,0.0
1503086035.3,286046999.0,P,0.6
1503086055.1,286046998.7,N,0.5
1503086056.0,286046998.7,N,0.4
1503086075.8,286046999.9,N,0.7
1503086095.7,286047000.5,N,0.9
1503086115.5,286047000.8,N,1.0
1503086135.3,286046998.3,N,1.0
1503086155.2,286046998.6,N,1.0
1503086175.9,286046996.6,Y,0.0
1503086195.7,286046998.3,P,0.4
1503086215.6,286046998.7,P,0.3
1503086235.4,286046999.0,N,0.3
1503086255.2,286046999.2,N,0.3
1503086275.1,286046999.0,Y,0.0
1503086276.0,286046999.0,P,0.1
1503086295.8,286046998.8,P,0.1
1503086315.6,286046998.4,P,0.2
1503086335.5,286046998.3,Y,0.0
1503086355.3,286047000.6,P,0.9
1503086375.1,286047000.4,N,0.8
1503086395.9,286046998.5,N,0.9
